Regional Weather Roundup
Issued by NWS Grand Forks, ND

Home | Current Version | Previous Version | Graphics & Text | Print | Product List | Glossary On
Versions: 1 2 3 4 5 6 7 8 9 10 11 12 13 14 15 16 17 18 19 20 21 22 23 24 25 26 27 28 29 30 31 32 33 34 35 36 37 38 39 40 41 42 43 44 45 46 47 48 49 50
000
ASUS43 KFGF 240210
RWRFGF
PRAIRIE TO PINES  WEATHER ROUNDUP
NATIONAL WEATHER SERVICE EASTERN NORTH DAKOTA/GRAND FORKS ND
900 PM CDT MON MAY 23 2016

 **SATELLITE DATA USED TO AUGMENT SKY COVER AT AUTOMATED STATIONS**
 *****  WEATHER ACROSS EASTERN NORTH DAKOTA  *****

CITY           SKY/WX    TMP DP  RH WIND       PRES   REMARKS
GRAND FORKS    PTCLDY    68  54  60 S6        29.65R
GRAND FRKS AFB CLEAR     68  54  60 S5        29.66R
GRAND FRKS NWS   N/A     70 N/A N/A SW5         N/A
DEVILS LAKE    CLEAR     68  47  46 W3        29.68R
FARGO          LGT RAIN  76  42  29 E8        29.67R
WAHPETON ARPT  CLOUDY    72  48  43 S5        29.67S
$$

 ***** WEATHER ACROSS CENTRAL AND WESTERN NORTH DAKOTA  *****

CITY           SKY/WX    TMP DP  RH WIND       PRES   REMARKS
BISMARCK       CLOUDY    69  40  34 N6        29.68S
MINOT          MOCLDY    70  40  33 SW8       29.67R
JAMESTOWN      PTCLDY    68  53  58 S3        29.68R
MINOT AFB      PTCLDY    69  37  30 W9        29.66R
GARRISON         N/A     63  39  41 NW9       29.71F
WILLISTON      PTCLDY    64  38  38 W12       29.70R
DICKINSON      CLEAR     62  37  39 CALM      29.72R
HETTINGER      PTCLDY    59  43  55 NE12      29.73S
$$

 *****  OTHER AIRPORT OBSERVATIONS IN OUR AREA  *****

CITY           SKY/WX    TMP DP  RH WIND       PRES   REMARKS
WALHALLA       FAIR      73  37  27 W7        29.65R
GRAFTON AIRPOR FAIR      68  52  56 W16       29.70R THUNDER
VALLEY CITY AR FAIR      66  54  63 CALM      29.70R
CANDO          FAIR      64  45  48 W6        29.69S
CAVALIER APRT  FAIR      73  43  33 SW6       29.65R
GWINNER        FAIR      73  55  53 S9        29.68S
SHEYENNE NWR     N/A     75  55  48 SE3       29.95S
ROLLA          FAIR      63  37  39 NW8       29.69R
 ***** THE ABOVE OBSERVATIONS ARE NON NWS ARE NOT QUALITY
       CONTROLLED AND MAY MIS-REPORT RAIN FOR SNOW...
$$

  *****  WEATHER ACROSS NORTHERN MINNESOTA  *****

CITY           SKY/WX    TMP DP  RH WIND       PRES   REMARKS
FLAG ISLAND    CLOUDY    66  54  63 CALM      29.66S
WARROAD        CLOUDY    72  50  46 SW3       29.68S
ROSEAU         CLOUDY    73  46  38 CALM      29.68R
HALLOCK        CLOUDY    73  45  35 SW23G30   29.67R
THF RVR FALLS  CLOUDY    72  54  53 SE5       29.70R
BAUDETTE       CLOUDY    67  46  47 CALM      29.69R
WASKISH        MOCLDY    64  59  82 MISG      29.71R
CROOKSTON      CLOUDY    73  55  53 CALM      29.68R
STEPHEN NDAWN    N/A     72  50  46 NW7         N/A
GREENBUSH NDAW   N/A     66  55  68 SE3         N/A
$$
  *****  WEATHER ACROSS CENTRAL AND WEST MINNESOTA  *****

CITY           SKY/WX    TMP DP  RH WIND       PRES   REMARKS
FOSSTON        CLOUDY    72  59  64 CALM      29.71R
BEMIDJI        CLOUDY    67  55  65 CALM      29.72R
PARK RAPIDS    MOCLDY    73  55  53 CALM      29.71R
ELBOW LAKE     FAIR      72  53  51 SW5       29.70R
WADENA         CLOUDY    70  57  64 SE7       29.70S
DETROIT LAKES  PTCLDY    72  54  53 CALM      29.71S
MOORHEAD       LGT RAIN  70  54  56 NE13      29.69R
FERGUS FALLS   CLOUDY    72  52  49 SW5       29.65R
MORRIS MN      CLOUDY    72  54  53 SW6       29.69S
STAPLES        CLOUDY    66  59  77 SE6       29.71S
$$
  *****  WEATHER ELSEWHERE ACROSS MINNESOTA  *****

CITY           SKY/WX    TMP DP  RH WIND       PRES   REMARKS
DULUTH         LGT RAIN  64  61  90 W6        29.76S
INTRNTL FALLS  CLOUDY    65  54  67 CALM      29.70R
ELY            MOCLDY    64  55  72 SE5       29.75R
CLOQUET        CLOUDY    63  59  88 W7        29.78S
WHEATON        CLOUDY    75  57  53 S5        29.70R
BRAINERD       CLOUDY    64  61  90 CALM      29.72F
HIBBING        CLOUDY    67  59  75 S5        29.73R
ALEXANDRIA     LGT RAIN  70  58  65 SE8       29.72R
SAINT CLOUD    LGT RAIN  64  62  93 S8        29.72F
MINNEAPOLIS    CLOUDY    70  61  73 SW6       29.75R
$$

  *****  WEATHER ACROSS SOUTH DAKOTA  *****

CITY           SKY/WX    TMP DP  RH WIND       PRES   REMARKS
SIOUX FALLS    CLOUDY    68  61  78 S10       29.76R
BROOKINGS      CLOUDY    67  58  72 S7        29.75R
WATERTOWN      CLOUDY    66  56  70 S5        29.73R
HURON          PTCLDY    69  54  58 S5        29.70S
SISSETON         N/A     73  53  49 W7        29.68R
ABERDEEN       MOCLDY    72  54  53 S5        29.68S
MITCHELL       CLOUDY    70  61  73 SE5       29.72S
PIERRE         CLEAR     67  50  54 SE7       29.68R
MOBRIDGE       CLEAR     67  53  61 SE8       29.65S
RAPID CITY     CLEAR     68  28  22 W12       29.73R
$$

  *****  SOME WEATHER IN NEARBY STATES *****

CITY           SKY/WX    TMP DP  RH WIND       PRES   REMARKS
GLASGOW MT     MOCLDY    57  41  55 W15       29.71R
GREAT FALLS MT LGT RAIN  45  42  89 CALM      29.83R
CHEYENNE WY    CLEAR     54  36  50 SW6       29.92R
SCOTTSBLUFF NE CLOUDY    51  46  83 SE14      29.86F
OMAHA NE       CLOUDY    70  63  78 S10       29.76F
DES MOINES IA  CLOUDY    71  59  65 S3        29.83S
DAVENPORT IA   PTCLDY    70  46  42 S7        29.87S
CHICAGO IL     MOCLDY    70  38  31 SE10      29.91S
EAU CLAIRE WI  CLOUDY    69  65  86 SW6       29.80R
LA CROSSE WI   PTCLDY    72  56  57 S7        29.80S
$$

  *****  SOME NATIONAL WEATHER *****

CITY           SKY/WX    TMP DP  RH WIND       PRES   REMARKS
LA GUARDIA NY  CLOUDY    66  49  54 SW7       29.90R
RALEIGH NC     PTCLDY    55  53  93 CALM      30.03R
ATLANTA GA     PTCLDY    73  51  46 SW3       30.00R
NEW ORLEANS LA PTCLDY    78  63  59 SE7       29.96R
OKLAHOMA CITY  CLOUDY    71  69  93 S12       29.83R
ALBUQUERQUE NM PTCLDY    80  13   8 SW12      29.83R
SALT LAKE CITY PTCLDY    67  33  28 N8        29.81S
LOS ANGELES CA PTCLDY    62  53  72 W12       29.88S
BOISE ID       SUNNY     67  33  28 NW8       29.79F
SEATTLE WA     CLOUDY    62  48  60 NE9       29.93F
$$

*** WEATHER ACROSS MANITOBA...SASKATCHEWAN AND ONTARIO ***
                ***ONTARIO***

CITY           SKY/WX    TMP DP  RH WIND       PRES   REMARKS
GERALDTON      NOT AVBL
THUNDER BAY    LGT RAIN  72  57  60 S16       29.71R
SIOUX LOOKOUT  MOCLDY    61  54  77 SW2       29.69S
TORONTO        CLEAR     68  43  40 N12       29.95R
BIG TROUT LK   LGT RAIN  39  37  93 N13G21    29.69R
PICKLE LAKE    PTCLDY    63  52  67 W7        29.66R
DRYDEN         CLEAR     68  46  45 SW5       29.70R
KENORA         MOCLDY    70  48  46 CALM      29.69S
$$
                *** MANITOBA***

CITY           SKY/WX    TMP DP  RH WIND       PRES   REMARKS
BRANDON        PTCLDY    70  37  30 W13       29.65R
DAUPHIN        CLEAR     66  41  39 W3        29.62R
ISLAND LAKE    CLOUDY    43  41  93 NE7       29.79R
PILOT MOUND      N/A     64  36  34 W3          N/A
THE PAS        CLOUDY    48  43  81 NE9       29.75R
THOMPSON       MOCLDY    41  39  93 N2        29.85R
WINNIPEG       PTCLDY    70  45  40 N5        29.62S
LYNN LAKE      CLOUDY    48  37  66 NE17G24   29.85R
CHURCHILL      MOCLDY    28  23  80 N10       29.99R WCI  19
GILLAM         CLOUDY    36  32  87 NE15G24   29.91R
$$
                ***SASKATCHEWAN***

CITY           SKY/WX    TMP DP  RH WIND       PRES   REMARKS
ESTEVAN        MOCLDY    63  39  42 SW14G21   29.67R
KINDERSLEY     MOCLDY    50  46  87 N14G22    29.66R
LLOYDMINSTER   CLOUDY    52  48  87 N12       29.72R
PRINCE ALBERT  LGT RAIN  54  50  87 NE15G23   29.67R
REGINA         LGT RAIN  54  46  76 SW13      29.62R
YORKTON        LGT RAIN  63  46  55 SE7       29.62R
N. BATTLEFORD  LGT RAIN  50  50 100 N14       29.68S
LA RONGE       MOCLDY    48  41  76 NE12      29.80R
SASKATOON      MOCLDY    57  41  54 NE7       29.64R
SWIFT CURRENT  CLOUDY    48  46  93 W12       29.61R
$$
NOTE: THESE ARE AUTOMATED STATIONS WITH LIMITED QUALITY CONTROL
      "FAIR" INDICATES FEW OR NO CLOUDS BELOW 12,000 FEET WITH NO
      SIGNIFICANT WEATHER AND/OR OBSTRUCTIONS TO VISIBILITY.
      SKY/WX - SKY CONDITION AND SIGNIFICANT WEATHER.
      TMP - AIR TEMPERATURE.    DP   - DEWPOINT TEMPERATURE.
      RH  - RELATIVE HUMIDITY.  PRES - PRESSURE.
      HX  - HEAT INDEX.         WCI  - WIND CHILL INDEX.
$




USA.gov is the U.S. government's official web portal to all federal, state and local government web resources and services.